Location: Unspecified
(48.8656°N, 0.0000°E)
Time: 14:27:43
(UTC+00:00)

Transit 2A Rocket - Pass Details

Date: 25 June 2019
Orbit: 588 x 915 km, 66.7° (Epoch: 16 July)

Event Time Altitude Azimuth Distance (km) Brightness Sun altitude
Rises 08:21:56 0° 175° (S) 3,535 8.6 40.1°
Reaches altitude 10° 08:24:52 10° 163° (SSE) 2,598 8.2 40.6°
Maximum altitude 08:29:44 26° 109° (ESE) 1,709 8.7 41.3°
Drops below altitude 10° 08:34:31 10° 56° (NE) 2,542 8.3 42.1°
Sets 08:37:20 0° 44° (NE) 3,444 8.7 42.6°
